| time (UTC) | temp C | wind direction | speed KPH | gust KPH | rain 1hr cm | rain 24hr cm | rain mn cm | humidity % | barometer mb |
| 20260507013203 | 6 | 0 | 4.8 | 6.4 | 0.00 | 0.00 | 0.00 | 86 | 1014.6 |
| 20260507013142 | 6 | 0 | 3.2 | 6.4 | 0.00 | 0.00 | 0.00 | 86 | 1014.6 |
| 20260507011702 | 7 | 0 | 3.2 | 6.4 | 0.00 | 0.00 | 0.00 | 85 | 1014.6 |
| 20260507011429 | 7 | 0 | 3.2 | 6.4 | 0.00 | 0.00 | 0.00 | 85 | 1014.6 |
| 20260507010702 | 7 | 0 | 1.6 | 4.8 | 0.00 | 0.00 | 0.00 | 85 | 1014.5 |
| 20260507010202 | 7 | 0 | 3.2 | 8.0 | 0.00 | 0.00 | 0.00 | 85 | 1014.4 |
| 20260507005703 | 7 | 0 | 3.2 | 8.0 | 0.00 | 0.00 | 0.00 | 85 | 1014.5 |
| 20260507005203 | 7 | 0 | 3.2 | 8.0 | 0.00 | 0.00 | 0.00 | 85 | 1014.6 |
| 20260507004702 | 7 | 0 | 3.2 | 8.0 | 0.00 | 0.00 | 0.00 | 85 | 1014.6 |
| 20260507004202 | 7 | 0 | 4.8 | 8.0 | 0.00 | 0.00 | 0.00 | 85 | 1014.5 |
| 20260507003703 | 7 | 0 | 4.8 | 11.3 | 0.00 | 0.00 | 0.00 | 85 | 1014.5 |
| 20260507003202 | 7 | 0 | 4.8 | 11.3 | 0.00 | 0.00 | 0.00 | 84 | 1014.6 |
| 20260507002927 | 7 | 0 | 3.2 | 8.0 | 0.00 | 0.00 | 0.00 | 84 | 1014.6 |
| 20260507002202 | 7 | 0 | 4.8 | 9.7 | 0.00 | 0.00 | 0.00 | 84 | 1014.6 |
| 20260507001703 | 7 | 0 | 4.8 | 9.7 | 0.00 | 0.00 | 0.00 | 84 | 1014.5 |
| 20260507001203 | 7 | 0 | 4.8 | 9.7 | 0.00 | 0.00 | 0.00 | 84 | 1014.4 |
| 20260507000703 | 7 | 0 | 4.8 | 9.7 | 0.00 | 0.00 | 0.00 | 84 | 1014.4 |
| 20260507000204 | 7 | 0 | 4.8 | 9.7 | 0.00 | 0.00 | 0.00 | 84 | 1014.4 |
| 20260506235701 | 7 | 0 | 6.4 | 9.7 | 0.00 | 0.00 | 0.00 | 85 | 1014.3 |
| 20260506235203 | 7 | 0 | 4.8 | 11.3 | 0.00 | 0.00 | 0.00 | 85 | 1014.5 |
| 20260506234702 | 7 | 0 | 6.4 | 11.3 | 0.00 | 0.00 | 0.00 | 85 | 1014.6 |
| 20260506234203 | 7 | 0 | 4.8 | 11.3 | 0.00 | 0.00 | 0.00 | 85 | 1014.5 |
| 20260506233926 | 7 | 0 | 4.8 | 9.7 | 0.00 | 0.00 | 0.00 | 85 | 1014.5 |
| 20260506233202 | 8 | 0 | 6.4 | 9.7 | 0.00 | 0.00 | 0.00 | 85 | 1014.5 |
| 20260506232702 | 8 | 0 | 4.8 | 9.7 | 0.00 | 0.00 | 0.00 | 85 | 1014.5 |
| 20260506232429 | 8 | 0 | 4.8 | 11.3 | 0.00 | 0.00 | 0.00 | 85 | 1014.4 |
| 20260506231703 | 8 | 0 | 4.8 | 11.3 | 0.00 | 0.00 | 0.00 | 85 | 1014.4 |
| 20260506231202 | 8 | 0 | 4.8 | 9.7 | 0.00 | 0.00 | 0.00 | 85 | 1014.4 |
| 20260506230702 | 8 | 0 | 4.8 | 14.5 | 0.00 | 0.00 | 0.00 | 85 | 1014.4 |
| 20260506230202 | 8 | 0 | 6.4 | 14.5 | 0.00 | 0.00 | 0.00 | 85 | 1014.5 |
| 20260506225703 | 8 | 0 | 6.4 | 11.3 | 0.00 | 0.00 | 0.00 | 85 | 1014.4 |
| 20260506225203 | 8 | 0 | 8.0 | 14.5 | 0.00 | 0.00 | 0.00 | 85 | 1014.4 |
| 20260506224702 | 8 | 0 | 6.4 | 14.5 | 0.00 | 0.00 | 0.00 | 85 | 1014.4 |
| 20260506224431 | 8 | 0 | 6.4 | 14.5 | 0.00 | 0.00 | 0.00 | 85 | 1014.4 |
| 20260506223702 | 8 | 0 | 6.4 | 14.5 | 0.00 | 0.00 | 0.00 | 85 | 1014.3 |
| 20260506223202 | 8 | 0 | 4.8 | 8.0 | 0.00 | 0.00 | 0.00 | 85 | 1014.3 |
| 20260506222703 | 8 | 0 | 6.4 | 11.3 | 0.00 | 0.00 | 0.00 | 85 | 1014.2 |
| 20260506222204 | 8 | 0 | 4.8 | 11.3 | 0.00 | 0.00 | 0.00 | 85 | 1014.1 |
| 20260506221705 | 8 | 0 | 3.2 | 14.5 | 0.00 | 0.00 | 0.00 | 85 | 1014.2 |
| 20260506221203 | 8 | 0 | 6.4 | 14.5 | 0.00 | 0.00 | 0.00 | 85 | 1014.1 |
| 20260506220703 | 8 | 0 | 6.4 | 14.5 | 0.00 | 0.00 | 0.00 | 85 | 1014.1 |
| 20260506220202 | 9 | 0 | 4.8 | 11.3 | 0.00 | 0.00 | 0.00 | 84 | 1014.1 |
| 20260506215703 | 9 | 0 | 4.8 | 11.3 | 0.00 | 0.00 | 0.00 | 84 | 1014.1 |
| 20260506215202 | 9 | 0 | 6.4 | 11.3 | 0.00 | 0.00 | 0.00 | 84 | 1014.0 |
| 20260506214703 | 9 | 0 | 6.4 | 11.3 | 0.00 | 0.00 | 0.00 | 84 | 1014.0 |
| 20260506214157 | 9 | 0 | 4.8 | 11.3 | 0.00 | 0.00 | 0.00 | 84 | 1014.0 |
| 20260506213656 | 9 | 0 | 6.4 | 9.7 | 0.00 | 0.00 | 0.00 | 84 | 1013.9 |
| 20260506213420 | 9 | 0 | 6.4 | 11.3 | 0.00 | 0.00 | 0.00 | 84 | 1013.9 |
| 20260506212656 | 10 | 0 | 6.4 | 11.3 | 0.00 | 0.00 | 0.00 | 83 | 1013.8 |
| 20260506212156 | 10 | 0 | 6.4 | 14.5 | 0.00 | 0.00 | 0.00 | 83 | 1013.7 |
| 20260506211914 | 10 | 0 | 4.8 | 14.5 | 0.00 | 0.00 | 0.00 | 83 | 1013.8 |
| 20260506211150 | 10 | 0 | 8.0 | 17.7 | 0.00 | 0.00 | 0.00 | 83 | 1013.8 |
| 20260506210646 | 10 | 0 | 9.7 | 17.7 | 0.00 | 0.00 | 0.00 | 82 | 1013.7 |
| 20260506210147 | 10 | 0 | 6.4 | 17.7 | 0.00 | 0.00 | 0.00 | 82 | 1013.6 |
| 20260506205645 | 10 | 0 | 6.4 | 17.7 | 0.00 | 0.00 | 0.00 | 82 | 1013.6 |
| 20260506205141 | 10 | 0 | 6.4 | 16.1 | 0.00 | 0.00 | 0.00 | 82 | 1013.5 |
| 20260506204901 | 10 | 0 | 6.4 | 16.1 | 0.00 | 0.00 | 0.00 | 81 | 1013.6 |
| 20260506204139 | 10 | 0 | 9.7 | 16.1 | 0.00 | 0.00 | 0.00 | 81 | 1013.5 |
| 20260506203639 | 10 | 0 | 4.8 | 17.7 | 0.00 | 0.00 | 0.00 | 81 | 1013.5 |
| 20260506203138 | 10 | 0 | 11.3 | 19.3 | 0.00 | 0.00 | 0.00 | 80 | 1013.5 |
| 20260506202637 | 10 | 0 | 8.0 | 19.3 | 0.00 | 0.00 | 0.00 | 80 | 1013.6 |
| 20260506202137 | 10 | 0 | 9.7 | 19.3 | 0.00 | 0.00 | 0.00 | 80 | 1013.4 |
| 20260506201638 | 10 | 0 | 9.7 | 19.3 | 0.00 | 0.00 | 0.00 | 79 | 1013.4 |
| 20260506201135 | 10 | 0 | 8.0 | 17.7 | 0.00 | 0.00 | 0.00 | 79 | 1013.5 |
| 20260506200636 | 10 | 0 | 8.0 | 16.1 | 0.00 | 0.00 | 0.00 | 79 | 1013.3 |
| 20260506200134 | 10 | 0 | 8.0 | 16.1 | 0.00 | 0.00 | 0.00 | 78 | 1013.3 |
| 20260506195633 | 11 | 0 | 6.4 | 16.1 | 0.00 | 0.00 | 0.00 | 78 | 1013.3 |
| 20260506195132 | 11 | 0 | 9.7 | 17.7 | 0.00 | 0.00 | 0.00 | 78 | 1013.1 |
| 20260506194633 | 11 | 0 | 8.0 | 19.3 | 0.00 | 0.00 | 0.00 | 78 | 1013.0 |
| 20260506194359 | 11 | 0 | 8.0 | 19.3 | 0.00 | 0.00 | 0.00 | 77 | 1012.9 |
| 20260506193634 | 11 | 0 | 9.7 | 20.9 | 0.00 | 0.00 | 0.00 | 76 | 1013.0 |
| 20260506193131 | 11 | 0 | 8.0 | 20.9 | 0.00 | 0.00 | 0.00 | 76 | 1012.9 |
| 20260506192632 | 11 | 0 | 12.9 | 19.3 | 0.00 | 0.00 | 0.00 | 76 | 1012.8 |
| 20260506192131 | 11 | 0 | 9.7 | 19.3 | 0.00 | 0.00 | 0.00 | 76 | 1012.8 |
| 20260506191631 | 11 | 0 | 9.7 | 20.9 | 0.00 | 0.00 | 0.00 | 75 | 1012.7 |
| 20260506191131 | 11 | 0 | 11.3 | 20.9 | 0.00 | 0.00 | 0.00 | 74 | 1012.6 |
| 20260506191123 | 12 | 0 | 6.4 | 17.7 | 0.00 | 0.00 | 0.00 | 74 | 1012.5 |
| 20260506190400 | 12 | 0 | 8.0 | 19.3 | 0.00 | 0.00 | 0.00 | 73 | 1012.5 |
| 20260506185630 | 12 | 0 | 11.3 | 24.1 | 0.00 | 0.00 | 0.00 | 73 | 1012.3 |
| 20260506185133 | 12 | 0 | 9.7 | 24.1 | 0.00 | 0.00 | 0.00 | 72 | 1012.3 |
| 20260506184632 | 12 | 0 | 8.0 | 20.9 | 0.00 | 0.00 | 0.00 | 73 | 1012.2 |
| 20260506184132 | 12 | 0 | 9.7 | 22.5 | 0.00 | 0.00 | 0.00 | 73 | 1012.2 |
| 20260506183631 | 12 | 0 | 8.0 | 22.5 | 0.00 | 0.00 | 0.00 | 72 | 1012.2 |
| 20260506183131 | 12 | 0 | 11.3 | 32.2 | 0.00 | 0.00 | 0.00 | 72 | 1012.0 |
| 20260506182631 | 12 | 0 | 11.3 | 32.2 | 0.00 | 0.00 | 0.00 | 71 | 1012.1 |
| 20260506182132 | 12 | 0 | 12.9 | 19.3 | 0.00 | 0.00 | 0.00 | 71 | 1011.9 |
| 20260506181632 | 12 | 0 | 6.4 | 22.5 | 0.00 | 0.00 | 0.00 | 72 | 1012.0 |
| 20260506181130 | 12 | 0 | 8.0 | 22.5 | 0.00 | 0.00 | 0.00 | 72 | 1011.9 |
| 20260506180857 | 12 | 0 | 11.3 | 20.9 | 0.00 | 0.00 | 0.00 | 71 | 1011.8 |
| 20260506180130 | 12 | 0 | 11.3 | 20.9 | 0.00 | 0.00 | 0.00 | 71 | 1011.8 |
| 20260506175855 | 12 | 0 | 8.0 | 22.5 | 0.00 | 0.00 | 0.00 | 71 | 1011.8 |
| 20260506175132 | 12 | 0 | 11.3 | 25.7 | 0.00 | 0.00 | 0.00 | 70 | 1011.7 |
| 20260506174632 | 13 | 0 | 11.3 | 25.7 | 0.00 | 0.00 | 0.00 | 70 | 1011.7 |
| 20260506174131 | 13 | 0 | 8.0 | 20.9 | 0.00 | 0.00 | 0.00 | 71 | 1011.5 |
| 20260506173853 | 13 | 0 | 12.9 | 22.5 | 0.00 | 0.00 | 0.00 | 71 | 1011.5 |
| 20260506173131 | 13 | 0 | 11.3 | 22.5 | 0.00 | 0.00 | 0.00 | 70 | 1011.5 |
| 20260506172631 | 13 | 0 | 11.3 | 24.1 | 0.00 | 0.00 | 0.00 | 71 | 1011.4 |
| 20260506172130 | 13 | 0 | 12.9 | 24.1 | 0.00 | 0.00 | 0.00 | 71 | 1011.4 |
| 20260506171633 | 13 | 0 | 6.4 | 25.7 | 0.00 | 0.00 | 0.00 | 72 | 1011.3 |
| 20260506171132 | 13 | 0 | 12.9 | 29.0 | 0.00 | 0.00 | 0.00 | 72 | 1011.3 |
| 20260506170632 | 13 | 0 | 14.5 | 29.0 | 0.00 | 0.00 | 0.00 | 72 | 1011.3 |
| 20260506170133 | 13 | 0 | 12.9 | 29.0 | 0.00 | 0.00 | 0.00 | 71 | 1011.3 |
| 20260506165858 | 13 | 0 | 6.4 | 29.0 | 0.00 | 0.00 | 0.00 | 71 | 1011.2 |
| 20260506165132 | 13 | 0 | 14.5 | 30.6 | 0.00 | 0.00 | 0.00 | 71 | 1011.2 |
| 20260506164631 | 13 | 0 | 11.3 | 30.6 | 0.00 | 0.00 | 0.00 | 72 | 1011.1 |
| 20260506164357 | 13 | 0 | 12.9 | 29.0 | 0.00 | 0.00 | 0.00 | 71 | 1011.2 |
| 20260506163632 | 13 | 0 | 8.0 | 29.0 | 0.00 | 0.00 | 0.00 | 71 | 1011.2 |
| 20260506163131 | 14 | 0 | 14.5 | 27.4 | 0.00 | 0.00 | 0.00 | 71 | 1010.9 |
| 20260506162631 | 14 | 0 | 12.9 | 25.7 | 0.00 | 0.00 | 0.00 | 72 | 1010.9 |
| 20260506162153 | 14 | 0 | 14.5 | 24.1 | 0.00 | 0.00 | 0.00 | 70 | 1011.0 |
| 20260506162146 | 14 | 0 | 14.5 | 25.7 | 0.00 | 0.00 | 0.00 | 70 | 1011.0 |
| 20260506161140 | 14 | 0 | 11.3 | 25.7 | 0.00 | 0.00 | 0.00 | 69 | 1011.0 |
| 20260506160638 | 14 | 0 | 17.7 | 25.7 | 0.00 | 0.00 | 0.00 | 70 | 1011.0 |
| 20260506160140 | 14 | 0 | 14.5 | 20.9 | 0.00 | 0.00 | 0.00 | 70 | 1011.0 |
| 20260506155639 | 14 | 0 | 6.4 | 19.3 | 0.00 | 0.00 | 0.00 | 72 | 1010.9 |
| 20260506155354 | 14 | 0 | 12.9 | 20.9 | 0.00 | 0.00 | 0.00 | 71 | 1011.0 |
| 20260506154627 | 14 | 0 | 11.3 | 20.9 | 0.00 | 0.00 | 0.00 | 70 | 1011.0 |
| 20260506154125 | 15 | 0 | 11.3 | 22.5 | 0.00 | 0.00 | 0.00 | 68 | 1011.1 |
| 20260506153626 | 15 | 0 | 11.3 | 22.5 | 0.00 | 0.00 | 0.00 | 69 | 1011.0 |
| 20260506153128 | 15 | 0 | 12.9 | 27.4 | 0.00 | 0.00 | 0.00 | 71 | 1010.9 |
| 20260506152625 | 15 | 0 | 11.3 | 27.4 | 0.00 | 0.00 | 0.00 | 70 | 1010.9 |
| 20260506152126 | 14 | 0 | 14.5 | 25.7 | 0.00 | 0.00 | 0.00 | 69 | 1010.8 |
| 20260506151624 | 14 | 0 | 12.9 | 25.7 | 0.00 | 0.00 | 0.00 | 70 | 1010.8 |
| 20260506151124 | 14 | 0 | 11.3 | 24.1 | 0.00 | 0.00 | 0.00 | 70 | 1010.9 |
| 20260506150624 | 14 | 0 | 12.9 | 24.1 | 0.00 | 0.00 | 0.00 | 70 | 1010.7 |
| 20260506150126 | 13 | 0 | 12.9 | 24.1 | 0.00 | 0.00 | 0.00 | 70 | 1010.7 |
| 20260506145624 | 13 | 0 | 12.9 | 25.7 | 0.00 | 0.00 | 0.00 | 70 | 1010.8 |
| 20260506145358 | 13 | 0 | 9.7 | 25.7 | 0.00 | 0.00 | 0.00 | 71 | 1010.7 |
| 20260506144625 | 13 | 0 | 11.3 | 25.7 | 0.00 | 0.00 | 0.00 | 72 | 1010.8 |
| 20260506144124 | 13 | 0 | 8.0 | 24.1 | 0.00 | 0.00 | 0.00 | 73 | 1010.8 |
| 20260506143850 | 13 | 0 | 11.3 | 27.4 | 0.00 | 0.00 | 0.00 | 72 | 1010.9 |
| 20260506143123 | 13 | 0 | 12.9 | 27.4 | 0.00 | 0.00 | 0.00 | 71 | 1010.8 |
| 20260506142625 | 13 | 0 | 9.7 | 24.1 | 0.00 | 0.00 | 0.00 | 72 | 1010.7 |
| 20260506142125 | 13 | 0 | 12.9 | 24.1 | 0.00 | 0.00 | 0.00 | 72 | 1010.8 |
| 20260506141625 | 13 | 0 | 11.3 | 24.1 | 0.00 | 0.00 | 0.00 | 72 | 1010.7 |
| 20260506141125 | 13 | 0 | 12.9 | 27.4 | 0.00 | 0.00 | 0.00 | 71 | 1010.8 |
| 20260506140624 | 13 | 0 | 11.3 | 27.4 | 0.00 | 0.00 | 0.00 | 71 | 1010.8 |
| 20260506140125 | 13 | 0 | 8.0 | 27.4 | 0.00 | 0.00 | 0.00 | 72 | 1010.8 |
| 20260506135625 | 13 | 0 | 9.7 | 27.4 | 0.00 | 0.00 | 0.00 | 72 | 1010.8 |
| 20260506135123 | 13 | 0 | 14.5 | 24.1 | 0.00 | 0.00 | 0.00 | 73 | 1010.8 |
| 20260506134624 | 13 | 0 | 8.0 | 24.1 | 0.00 | 0.00 | 0.00 | 73 | 1010.7 |
| 20260506134123 | 13 | 0 | 11.3 | 24.1 | 0.00 | 0.00 | 0.00 | 72 | 1010.7 |
| 20260506133624 | 13 | 0 | 9.7 | 25.7 | 0.00 | 0.00 | 0.00 | 72 | 1010.7 |
| 20260506133122 | 13 | 0 | 12.9 | 25.7 | 0.00 | 0.00 | 0.00 | 73 | 1010.7 |
| 20260506132624 | 13 | 0 | 14.5 | 25.7 | 0.00 | 0.00 | 0.00 | 72 | 1010.7 |
| 20260506132122 | 13 | 0 | 14.5 | 25.7 | 0.00 | 0.00 | 0.00 | 71 | 1010.6 |
| 20260506131622 | 13 | 0 | 9.7 | 25.7 | 0.00 | 0.00 | 0.00 | 71 | 1010.5 |
| 20260506131121 | 13 | 0 | 11.3 | 25.7 | 0.00 | 0.00 | 0.00 | 71 | 1010.4 |
| 20260506130847 | 14 | 0 | 12.9 | 24.1 | 0.00 | 0.00 | 0.00 | 70 | 1010.4 |
| 20260506130121 | 14 | 0 | 9.7 | 20.9 | 0.00 | 0.00 | 0.00 | 71 | 1010.5 |
| 20260506125621 | 14 | 0 | 12.9 | 20.9 | 0.00 | 0.00 | 0.00 | 69 | 1010.5 |
| 20260506125345 | 14 | 0 | 11.3 | 20.9 | 0.00 | 0.00 | 0.00 | 69 | 1010.5 |
| 20260506124622 | 14 | 0 | 9.7 | 25.7 | 0.00 | 0.00 | 0.00 | 66 | 1010.4 |
| 20260506124351 | 13 | 0 | 11.3 | 25.7 | 0.00 | 0.00 | 0.00 | 65 | 1010.5 |
| 20260506123622 | 14 | 0 | 12.9 | 27.4 | 0.00 | 0.00 | 0.00 | 66 | 1010.4 |
| 20260506123122 | 14 | 0 | 9.7 | 27.4 | 0.00 | 0.00 | 0.00 | 68 | 1010.5 |
| 20260506122621 | 14 | 0 | 11.3 | 22.5 | 0.00 | 0.00 | 0.00 | 67 | 1010.4 |
| 20260506122122 | 14 | 0 | 14.5 | 29.0 | 0.00 | 0.00 | 0.00 | 67 | 1010.4 |
| 20260506121619 | 14 | 0 | 16.1 | 29.0 | 0.00 | 0.00 | 0.00 | 66 | 1010.4 |
| 20260506121353 | 14 | 0 | 9.7 | 24.1 | 0.00 | 0.00 | 0.00 | 67 | 1010.4 |
| 20260506120620 | 14 | 0 | 14.5 | 24.1 | 0.00 | 0.00 | 0.00 | 68 | 1010.4 |
| 20260506120120 | 14 | 0 | 12.9 | 22.5 | 0.00 | 0.00 | 0.00 | 70 | 1010.3 |
| 20260506115618 | 13 | 0 | 9.7 | 17.7 | 0.00 | 0.00 | 0.00 | 69 | 1010.4 |
| 20260506115120 | 13 | 0 | 11.3 | 17.7 | 0.00 | 0.00 | 0.00 | 71 | 1010.3 |
| 20260506114618 | 13 | 0 | 8.0 | 19.3 | 0.00 | 0.00 | 0.00 | 69 | 1010.4 |
| 20260506114118 | 13 | 0 | 11.3 | 19.3 | 0.00 | 0.00 | 0.00 | 69 | 1010.3 |
| 20260506113618 | 14 | 0 | 16.1 | 17.7 | 0.00 | 0.00 | 0.00 | 69 | 1010.4 |
| 20260506113120 | 14 | 0 | 14.5 | 20.9 | 0.00 | 0.00 | 0.00 | 69 | 1010.4 |
| 20260506112619 | 14 | 0 | 14.5 | 20.9 | 0.00 | 0.00 | 0.00 | 70 | 1010.5 |
| 20260506112344 | 14 | 0 | 11.3 | 14.5 | 0.00 | 0.00 | 0.00 | 69 | 1010.4 |
| 20260506111845 | 15 | 0 | 9.7 | 14.5 | 0.00 | 0.00 | 0.00 | 69 | 1010.4 |
| 20260506111119 | 15 | 0 | 8.0 | 11.3 | 0.00 | 0.00 | 0.00 | 69 | 1010.3 |
| 20260506110617 | 15 | 0 | 17.7 | 20.9 | 0.00 | 0.00 | 0.00 | 70 | 1010.3 |
| 20260506110121 | 15 | 0 | 17.7 | 20.9 | 0.00 | 0.00 | 0.00 | 70 | 1010.3 |
| 20260506105619 | 15 | 0 | 14.5 | 14.5 | 0.00 | 0.00 | 0.00 | 69 | 1010.3 |
| 20260506105117 | 15 | 0 | 8.0 | 27.4 | 0.00 | 0.00 | 0.00 | 70 | 1010.4 |
| 20260506104617 | 15 | 0 | 14.5 | 27.4 | 0.00 | 0.00 | 0.00 | 69 | 1010.4 |
| 20260506104119 | 15 | 0 | 14.5 | 22.5 | 0.00 | 0.00 | 0.00 | 71 | 1010.3 |
| 20260506103617 | 14 | 0 | 16.1 | 22.5 | 0.00 | 0.00 | 0.00 | 72 | 1010.3 |
| 20260506103117 | 14 | 0 | 19.3 | 19.3 | 0.00 | 0.00 | 0.00 | 70 | 1010.4 |
| 20260506102617 | 14 | 0 | 14.5 | 24.1 | 0.00 | 0.00 | 0.00 | 72 | 1010.4 |
| 20260506102118 | 14 | 0 | 12.9 | 24.1 | 0.00 | 0.00 | 0.00 | 70 | 1010.3 |
| 20260506101836 | 14 | 0 | 14.5 | 20.9 | 0.00 | 0.00 | 0.00 | 71 | 1010.4 |
| 20260506101118 | 14 | 0 | 12.9 | 22.5 | 0.00 | 0.00 | 0.00 | 75 | 1010.3 |
| 20260506100619 | 13 | 0 | 17.7 | 22.5 | 0.00 | 0.00 | 0.00 | 74 | 1010.3 |
| 20260506100117 | 13 | 0 | 11.3 | 22.5 | 0.00 | 0.00 | 0.00 | 73 | 1010.3 |
| 20260506095618 | 13 | 0 | 14.5 | 20.9 | 0.00 | 0.00 | 0.00 | 74 | 1010.3 |
| 20260506095116 | 13 | 0 | 14.5 | 20.9 | 0.00 | 0.00 | 0.00 | 75 | 1010.2 |
| 20260506094842 | 13 | 0 | 9.7 | 25.7 | 0.00 | 0.00 | 0.00 | 74 | 1010.2 |
| 20260506094116 | 13 | 0 | 16.1 | 27.4 | 0.00 | 0.00 | 0.00 | 75 | 1010.3 |
| 20260506093616 | 13 | 0 | 12.9 | 27.4 | 0.00 | 0.00 | 0.00 | 74 | 1010.2 |
| 20260506093115 | 13 | 0 | 8.0 | 27.4 | 0.00 | 0.00 | 0.00 | 73 | 1010.3 |
| 20260506092615 | 13 | 0 | 14.5 | 24.1 | 0.00 | 0.00 | 0.00 | 73 | 1010.1 |
| 20260506092115 | 13 | 0 | 11.3 | 20.9 | 0.00 | 0.00 | 0.00 | 76 | 1010.1 |
| 20260506091616 | 13 | 0 | 14.5 | 20.9 | 0.00 | 0.00 | 0.00 | 75 | 1010.0 |
| 20260506091115 | 14 | 0 | 6.4 | 20.9 | 0.00 | 0.00 | 0.00 | 75 | 1010.0 |
| 20260506090616 | 14 | 0 | 12.9 | 22.5 | 0.00 | 0.00 | 0.00 | 75 | 1010.0 |
| 20260506090344 | 14 | 0 | 9.7 | 22.5 | 0.00 | 0.00 | 0.00 | 76 | 1009.9 |
| 20260506085615 | 13 | 0 | 8.0 | 24.1 | 0.00 | 0.00 | 0.00 | 78 | 1009.9 |
| 20260506085343 | 13 | 0 | 8.0 | 24.1 | 0.00 | 0.00 | 0.00 | 78 | 1010.0 |
| 20260506084616 | 13 | 0 | 9.7 | 22.5 | 0.00 | 0.00 | 0.00 | 78 | 1010.1 |
| 20260506084114 | 13 | 0 | 11.3 | 22.5 | 0.00 | 0.00 | 0.00 | 77 | 1009.9 |
| 20260506083841 | 13 | 0 | 9.7 | 20.9 | 0.00 | 0.00 | 0.00 | 77 | 1009.9 |
| 20260506083114 | 13 | 0 | 12.9 | 20.9 | 0.00 | 0.00 | 0.00 | 77 | 1009.9 |
| 20260506082838 | 13 | 0 | 12.9 | 20.9 | 0.00 | 0.00 | 0.00 | 77 | 1009.9 |
| 20260506082116 | 13 | 0 | 11.3 | 22.5 | 0.00 | 0.00 | 0.00 | 77 | 1009.8 |
| 20260506081618 | 13 | 0 | 11.3 | 22.5 | 0.00 | 0.00 | 0.00 | 78 | 1009.8 |
| 20260506081337 | 13 | 0 | 12.9 | 24.1 | 0.00 | 0.00 | 0.00 | 78 | 1009.9 |
| 20260506080634 | 13 | 0 | 11.3 | 22.5 | 0.00 | 0.00 | 0.00 | 78 | 1009.9 |
| 20260506080627 | 13 | 0 | 11.3 | 24.1 | 0.00 | 0.00 | 0.00 | 78 | 1009.9 |
| 20260506073114 | 12 | 0 | 11.3 | 24.1 | 0.00 | 0.00 | 0.00 | 81 | 1009.7 |
| 20260506072613 | 12 | 0 | 11.3 | 30.6 | 0.00 | 0.00 | 0.00 | 81 | 1009.6 |
| 20260506072112 | 12 | 0 | 14.5 | 30.6 | 0.00 | 0.00 | 0.00 | 81 | 1009.8 |
| 20260506071613 | 12 | 0 | 9.7 | 20.9 | 0.00 | 0.00 | 0.00 | 81 | 1009.7 |
| 20260506071336 | 12 | 0 | 9.7 | 27.4 | 0.00 | 0.00 | 0.00 | 81 | 1009.8 |
| 20260506070613 | 12 | 0 | 14.5 | 27.4 | 0.00 | 0.00 | 0.00 | 81 | 1009.7 |
| 20260506070112 | 12 | 0 | 12.9 | 29.0 | 0.00 | 0.00 | 0.00 | 81 | 1009.6 |
| 20260506062111 | 11 | 0 | 9.7 | 22.5 | 0.00 | 0.00 | 0.00 | 84 | 1009.5 |
| 20260506061610 | 11 | 0 | 9.7 | 19.3 | 0.00 | 0.00 | 0.00 | 84 | 1009.5 |
| 20260506061112 | 11 | 0 | 6.4 | 22.5 | 0.00 | 0.00 | 0.00 | 84 | 1009.5 |
| 20260506060610 | 11 | 0 | 12.9 | 22.5 | 0.00 | 0.00 | 0.00 | 84 | 1009.5 |
| 20260506060110 | 11 | 0 | 12.9 | 22.5 | 0.00 | 0.00 | 0.00 | 84 | 1009.4 |
| 20260506051110 | 10 | 0.0 | 0.0 | 0.00 | 0.00 | 0.00 | 84 | 1009.5 | |
| 20260506050609 | 10 | 0.0 | 0.0 | 0.00 | 0.00 | 0.00 | 85 | 1009.4 | |
| 20260506050108 | 10 | 0.0 | 0.0 | 0.00 | 0.00 | 0.00 | 85 | 1009.5 | |
| 20260506044607 | 10 | 0 | 8.0 | 11.3 | 0.00 | 0.00 | 0.00 | 85 | 1009.6 |
| 20260506044104 | 10 | 0 | 8.0 | 16.1 | 0.00 | 0.00 | 0.00 | 85 | 1009.6 |
| 20260506044051 | 10 | 0 | 9.7 | 16.1 | 0.00 | 0.00 | 0.00 | 85 | 1009.6 |
| 20260506043326 | 10 | 0 | 9.7 | 14.5 | 0.00 | 0.00 | 0.00 | 85 | 1009.6 |
| 20260506042604 | 10 | 0 | 6.4 | 14.5 | 0.00 | 0.00 | 0.00 | 85 | 1009.6 |
| 20260506042104 | 10 | 0 | 6.4 | 16.1 | 0.00 | 0.00 | 0.00 | 85 | 1009.7 |
| 20260506041603 | 10 | 0 | 6.4 | 16.1 | 0.00 | 0.00 | 0.00 | 85 | 1009.6 |
| 20260506041102 | 10 | 0 | 8.0 | 16.1 | 0.00 | 0.00 | 0.00 | 85 | 1009.7 |
| 20260506040603 | 10 | 0 | 6.4 | 17.7 | 0.00 | 0.00 | 0.00 | 85 | 1009.6 |
| 20260506035606 | 10 | 0 | 8.0 | 19.3 | 0.00 | 0.00 | 0.00 | 85 | 1009.6 |
| 20260506035103 | 10 | 0 | 9.7 | 19.3 | 0.00 | 0.00 | 0.00 | 85 | 1009.6 |
| 20260506034602 | 10 | 0 | 9.7 | 17.7 | 0.00 | 0.00 | 0.00 | 85 | 1009.6 |
| 20260506034101 | 10 | 0 | 6.4 | 17.7 | 0.00 | 0.00 | 0.00 | 85 | 1009.7 |
| 20260506033601 | 10 | 0 | 6.4 | 16.1 | 0.00 | 0.00 | 0.00 | 85 | 1009.7 |
| 20260506033102 | 10 | 0 | 6.4 | 16.1 | 0.00 | 0.00 | 0.00 | 85 | 1009.6 |
| 20260506032603 | 10 | 0 | 8.0 | 17.7 | 0.00 | 0.00 | 0.00 | 85 | 1009.7 |
| 20260506032327 | 10 | 0 | 8.0 | 17.7 | 0.00 | 0.00 | 0.00 | 85 | 1009.8 |
| 20260506031603 | 10 | 0 | 8.0 | 16.1 | 0.00 | 0.00 | 0.00 | 85 | 1009.7 |
| 20260506031330 | 10 | 0 | 9.7 | 16.1 | 0.00 | 0.00 | 0.00 | 85 | 1009.7 |
| 20260506030603 | 10 | 0 | 6.4 | 16.1 | 0.00 | 0.00 | 0.00 | 85 | 1009.9 |
| 20260506030331 | 10 | 0 | 6.4 | 16.1 | 0.00 | 0.00 | 0.00 | 85 | 1009.8 |
| 20260506025601 | 10 | 0 | 8.0 | 14.5 | 0.00 | 0.00 | 0.00 | 85 | 1009.9 |
| 20260506025557 | 10 | 0 | 8.0 | 16.1 | 0.00 | 0.00 | 0.00 | 85 | 1009.8 |
| 20260506024601 | 10 | 0 | 9.7 | 16.1 | 0.00 | 0.00 | 0.00 | 85 | 1010.0 |
| 20260506024100 | 9 | 0 | 8.0 | 16.1 | 0.00 | 0.00 | 0.00 | 85 | 1010.0 |
| 20260506023559 | 9 | 0 | 8.0 | 16.1 | 0.00 | 0.00 | 0.00 | 85 | 1009.9 |
| 20260506023101 | 9 | 0 | 8.0 | 14.5 | 0.00 | 0.00 | 0.00 | 85 | 1009.9 |
| 20260506022600 | 9 | 0 | 9.7 | 14.5 | 0.00 | 0.00 | 0.00 | 85 | 1010.0 |
| 20260506022100 | 9 | 0 | 8.0 | 14.5 | 0.00 | 0.00 | 0.00 | 84 | 1009.9 |
| 20260506021601 | 9 | 0 | 9.7 | 16.1 | 0.00 | 0.00 | 0.00 | 85 | 1010.1 |
| 20260506021100 | 9 | 0 | 4.8 | 16.1 | 0.00 | 0.00 | 0.00 | 84 | 1010.0 |
| 20260506020600 | 9 | 0 | 8.0 | 16.1 | 0.00 | 0.00 | 0.00 | 84 | 1010.0 |
| 20260506020324 | 9 | 0 | 8.0 | 14.5 | 0.00 | 0.00 | 0.00 | 84 | 1010.0 |
| 20260506015602 | 9 | 0 | 6.4 | 11.3 | 0.00 | 0.00 | 0.00 | 84 | 1010.1 |
| 20260506015059 | 9 | 0 | 6.4 | 11.3 | 0.00 | 0.00 | 0.00 | 84 | 1010.2 |
| 20260506014559 | 9 | 0 | 6.4 | 16.1 | 0.00 | 0.00 | 0.00 | 84 | 1010.2 |
| 20260506014059 | 9 | 0 | 9.7 | 16.1 | 0.00 | 0.00 | 0.00 | 84 | 1010.1 |